CFG1561 LEPA-EDLW

Flight info

Callsign CFG1561
Flight time N/A
Altitude 36000
Route GALAT DCT RODRA DCT VNV DCT ANTON DCT BISES DCT SADUR DCT CAVES DCT LATRO DCT OLOXO DCT OKABI DCT TOU DCT ADABI DCT BOKNO DCT DIBES DCT VIQAQ DCT TSU UN858 OQQAL DCT RANUX/N0451F370 DCT VALEK DCT LUTAX UM163 DIK T856 AFNAF M170 ADEMI ADEMI2A
Aircraft A320/M-SDE3FGHIJ1LORVWXYZ/SB1

Departure

Time 2026-05-06 10:43
Airport Palma de Mallorca Airport (LEPA)

Arrival

Time N/A
Airport Dortmund Airport (EDLW)
Time Latitude Longitude Altitude Speed Heading
2026-05-06 10:15 39.54798 2.73606 34 ft 0 kts 58°
2026-05-06 10:29 39.54787 2.73585 35 ft 4 kts 57°
2026-05-06 10:29 39.54776 2.73555 35 ft 4 kts 82°
2026-05-06 10:30 39.54779 2.73524 34 ft 4 kts 132°
2026-05-06 10:30 39.54789 2.73513 32 ft 1 kts 147°
2026-05-06 10:30 39.54790 2.73512 32 ft 0 kts 147°
2026-05-06 10:35 39.54784 2.73517 32 ft 3 kts 147°
2026-05-06 10:35 39.54763 2.73534 32 ft 3 kts 148°
2026-05-06 10:35 39.54749 2.73545 36 ft 2 kts 148°
2026-05-06 10:36 39.54743 2.73550 36 ft 0 kts 148°
2026-05-06 10:36 39.54741 2.73552 36 ft 2 kts 148°
2026-05-06 10:36 39.54716 2.73573 36 ft 6 kts 148°
2026-05-06 10:36 39.54678 2.73603 36 ft 6 kts 148°
2026-05-06 10:37 39.54651 2.73641 36 ft 5 kts 105°
2026-05-06 10:37 39.54675 2.73707 36 ft 13 kts 57°
2026-05-06 10:38 39.54726 2.73814 36 ft 21 kts 60°
2026-05-06 10:38 39.54816 2.73993 36 ft 23 kts 45°
2026-05-06 10:38 39.54916 2.73968 36 ft 12 kts 23°
2026-05-06 10:38 39.54980 2.74005 36 ft 9 kts 344°
2026-05-06 10:39 39.55028 2.73965 36 ft 7 kts 319°
2026-05-06 10:39 39.55069 2.73929 36 ft 9 kts 328°
2026-05-06 10:39 39.55152 2.73865 35 ft 18 kts 329°
2026-05-06 10:39 39.55286 2.73762 36 ft 24 kts 329°
2026-05-06 10:40 39.55435 2.73643 34 ft 26 kts 329°
2026-05-06 10:40 39.55592 2.73521 28 ft 19 kts 330°
2026-05-06 10:40 39.55670 2.73535 27 ft 12 kts 57°
2026-05-06 10:40 39.55713 2.73626 27 ft 13 kts 59°
2026-05-06 10:41 39.55768 2.73742 29 ft 18 kts 57°
2026-05-06 10:41 39.55846 2.73902 24 ft 24 kts 58°
2026-05-06 10:41 39.55937 2.74095 21 ft 26 kts 59°
2026-05-06 10:41 39.56050 2.74291 17 ft 28 kts 36°
2026-05-06 10:42 39.56186 2.74360 17 ft 15 kts 353°
2026-05-06 10:42 39.56240 2.74276 17 ft 12 kts 256°
2026-05-06 10:42 39.56182 2.74160 19 ft 25 kts 237°
2026-05-06 10:42 39.55964 2.73704 24 ft 92 kts 239°
2026-05-06 10:43 39.55532 2.72796 26 ft 144 kts 238°
2026-05-06 10:43 39.54939 2.71570 334 ft 161 kts 236°
2026-05-06 10:43 39.54333 2.70354 990 ft 164 kts 236°
2026-05-06 10:44 39.53014 2.67730 1816 ft 192 kts 236°
2026-05-06 10:44 39.52233 2.66177 2106 ft 215 kts 237°
2026-05-06 10:44 39.51405 2.64533 2739 ft 222 kts 237°
2026-05-06 10:44 39.50550 2.62840 3478 ft 225 kts 237°
2026-05-06 10:45 39.49697 2.61154 4245 ft 226 kts 237°
2026-05-06 10:45 39.48828 2.59442 5032 ft 226 kts 236°
2026-05-06 10:45 39.47966 2.57752 5830 ft 226 kts 236°
2026-05-06 10:45 39.47098 2.56058 6562 ft 227 kts 236°
2026-05-06 10:46 39.46217 2.54338 7295 ft 228 kts 237°
2026-05-06 10:46 39.45347 2.52611 8025 ft 230 kts 240°
2026-05-06 10:46 39.44936 2.50565 8328 ft 252 kts 275°
2026-05-06 10:46 39.45618 2.48407 8706 ft 274 kts 310°
2026-05-06 10:47 39.47125 2.46826 9388 ft 282 kts 322°
2026-05-06 10:47 39.48717 2.45362 10135 ft 286 kts 322°
2026-05-06 10:47 39.50399 2.43811 10403 ft 308 kts 321°
2026-05-06 10:47 39.52203 2.42133 10580 ft 330 kts 321°
2026-05-06 10:48 39.54105 2.40355 11045 ft 341 kts 321°
2026-05-06 10:48 39.56123 2.38673 11685 ft 347 kts 326°
2026-05-06 10:48 39.57513 2.37623 12090 ft 350 kts 326°
2026-05-06 10:48 39.59643 2.36038 12764 ft 354 kts 326°
2026-05-06 10:49 39.61799 2.34444 13442 ft 358 kts 326°
2026-05-06 10:49 39.63961 2.32846 14050 ft 362 kts 326°
2026-05-06 10:49 39.66167 2.31210 14652 ft 365 kts 326°
2026-05-06 10:49 39.68359 2.29578 15222 ft 368 kts 326°
2026-05-06 10:50 39.70606 2.27903 15834 ft 371 kts 326°
2026-05-06 10:50 39.72860 2.26221 16413 ft 374 kts 326°
2026-05-06 10:50 39.75107 2.24538 16963 ft 377 kts 325°
2026-05-06 10:50 39.77400 2.22816 17512 ft 381 kts 325°
2026-05-06 10:51 39.79685 2.21098 18070 ft 384 kts 325°
2026-05-06 10:51 39.82024 2.19334 18563 ft 387 kts 324°
2026-05-06 10:51 39.84349 2.17580 19040 ft 390 kts 324°
2026-05-06 10:51 39.86714 2.15801 19516 ft 393 kts 324°
2026-05-06 10:52 39.89072 2.14032 19988 ft 395 kts 324°
2026-05-06 10:52 39.91469 2.12234 20464 ft 397 kts 324°
2026-05-06 10:52 39.93881 2.10422 20936 ft 400 kts 324°
2026-05-06 10:52 39.96285 2.08607 21384 ft 402 kts 324°
2026-05-06 10:53 39.98726 2.06759 21823 ft 405 kts 324°
2026-05-06 10:53 40.01149 2.04921 22263 ft 407 kts 324°
2026-05-06 10:53 40.03613 2.03052 22734 ft 409 kts 323°
2026-05-06 10:53 40.06064 2.01195 23172 ft 412 kts 323°
2026-05-06 10:54 40.08565 1.99298 23590 ft 414 kts 323°
2026-05-06 10:54 40.11068 1.97400 23948 ft 416 kts 323°
2026-05-06 10:54 40.13600 1.95523 24302 ft 421 kts 327°
2026-05-06 10:54 40.16315 1.94067 24645 ft 430 kts 336°
2026-05-06 10:55 40.19255 1.93177 24970 ft 439 kts 343°
2026-05-06 10:55 40.22277 1.92485 25307 ft 441 kts 343°
2026-05-06 10:55 40.25319 1.91787 25651 ft 443 kts 343°
2026-05-06 10:55 40.28341 1.91092 25958 ft 445 kts 343°
2026-05-06 10:56 40.31405 1.90380 26323 ft 447 kts 343°
2026-05-06 10:56 40.34481 1.89660 26666 ft 448 kts 343°
2026-05-06 10:56 40.37530 1.88948 26991 ft 450 kts 343°
2026-05-06 10:56 40.40632 1.88226 27313 ft 452 kts 343°
2026-05-06 10:57 40.43744 1.87503 27619 ft 454 kts 342°
2026-05-06 10:57 40.46844 1.86780 27955 ft 456 kts 342°
2026-05-06 10:57 40.49981 1.86047 28250 ft 458 kts 342°
2026-05-06 10:57 40.53096 1.85316 28532 ft 459 kts 342°
2026-05-06 10:58 40.56257 1.84570 28809 ft 461 kts 342°
2026-05-06 10:58 40.59412 1.83823 29077 ft 463 kts 342°
2026-05-06 10:58 40.62602 1.83069 29345 ft 464 kts 342°
2026-05-06 10:58 40.65801 1.82317 29611 ft 466 kts 342°
2026-05-06 10:59 40.69004 1.81566 29870 ft 468 kts 342°
2026-05-06 10:59 40.72222 1.80811 30117 ft 470 kts 342°
2026-05-06 10:59 40.75400 1.80062 30407 ft 469 kts 342°
2026-05-06 10:59 40.78612 1.79307 30722 ft 468 kts 342°
2026-05-06 11:00 40.81824 1.78554 31033 ft 467 kts 342°
2026-05-06 11:00 40.85033 1.77799 31335 ft 466 kts 342°
2026-05-06 11:00 40.88229 1.77046 31635 ft 466 kts 342°
2026-05-06 11:00 40.91401 1.76299 31982 ft 465 kts 342°
2026-05-06 11:01 40.94591 1.75546 32296 ft 464 kts 342°
2026-05-06 11:01 40.97737 1.74800 32615 ft 463 kts 342°
2026-05-06 11:01 41.00926 1.74043 32920 ft 462 kts 342°
2026-05-06 11:01 41.04062 1.73299 33232 ft 461 kts 342°
2026-05-06 11:02 41.07241 1.72597 33541 ft 462 kts 343°
2026-05-06 11:02 41.10437 1.72028 33846 ft 463 kts 345°
2026-05-06 11:02 41.13641 1.71555 34132 ft 464 kts 346°
2026-05-06 11:02 41.16830 1.71131 34353 ft 464 kts 347°
2026-05-06 11:03 41.20062 1.70704 34571 ft 464 kts 347°
2026-05-06 11:03 41.23242 1.70265 34783 ft 464 kts 346°
2026-05-06 11:03 41.26455 1.69795 35000 ft 464 kts 346°
2026-05-06 11:03 41.29657 1.69302 35197 ft 464 kts 346°
2026-05-06 11:04 41.32855 1.68794 35408 ft 463 kts 346°
2026-05-06 11:04 41.36056 1.68282 35637 ft 464 kts 346°
2026-05-06 11:04 41.39265 1.67773 35824 ft 464 kts 346°
2026-05-06 11:04 41.42477 1.67269 35947 ft 465 kts 346°
2026-05-06 11:05 41.45690 1.66767 35972 ft 465 kts 346°
2026-05-06 11:05 41.52118 1.65766 35965 ft 465 kts 346°
2026-05-06 11:06 41.58545 1.64770 35963 ft 465 kts 346°
2026-05-06 11:06 41.64970 1.63764 35964 ft 464 kts 346°
2026-05-06 11:07 41.71393 1.62750 35962 ft 465 kts 346°
2026-05-06 11:07 41.77821 1.61728 36001 ft 465 kts 346°
2026-05-06 11:08 41.84250 1.60707 35997 ft 465 kts 347°
2026-05-06 11:08 41.90632 1.59703 35992 ft 464 kts 347°
2026-05-06 11:09 41.97053 1.58694 35989 ft 464 kts 347°
2026-05-06 11:09 42.03469 1.57682 36005 ft 464 kts 347°
2026-05-06 11:10 42.09896 1.56657 35984 ft 464 kts 346°
2026-05-06 11:10 42.16313 1.55633 35966 ft 464 kts 347°
2026-05-06 11:11 42.22730 1.54606 35958 ft 464 kts 347°
2026-05-06 11:11 42.29103 1.53582 35956 ft 465 kts 347°
2026-05-06 11:12 42.35541 1.52555 35966 ft 465 kts 347°
2026-05-06 11:12 42.41967 1.51527 35980 ft 465 kts 347°
2026-05-06 11:13 42.48387 1.50492 35968 ft 464 kts 347°
2026-05-06 11:13 42.54800 1.49458 35951 ft 463 kts 347°
2026-05-06 11:14 42.61219 1.48425 35981 ft 464 kts 348°
2026-05-06 11:14 42.67634 1.47396 35970 ft 464 kts 348°
2026-05-06 11:15 42.74045 1.46367 35971 ft 464 kts 348°
2026-05-06 11:15 42.80446 1.45336 35970 ft 463 kts 348°
2026-05-06 11:16 42.86840 1.44294 35963 ft 463 kts 348°
2026-05-06 11:16 42.93245 1.43257 35965 ft 463 kts 348°
2026-05-06 11:17 42.99605 1.42232 35971 ft 463 kts 348°
2026-05-06 11:17 43.06002 1.41197 35996 ft 463 kts 348°
2026-05-06 11:18 43.12395 1.40157 35987 ft 462 kts 348°
2026-05-06 11:18 43.18774 1.39114 35978 ft 462 kts 348°
2026-05-06 11:19 43.25175 1.38067 35989 ft 463 kts 348°
2026-05-06 11:19 43.31565 1.37019 35980 ft 462 kts 348°
2026-05-06 11:20 43.37915 1.35971 35972 ft 462 kts 348°
2026-05-06 11:20 43.44295 1.34920 35994 ft 462 kts 348°
2026-05-06 11:21 43.50676 1.33869 35975 ft 462 kts 348°
2026-05-06 11:21 43.57059 1.32815 35973 ft 462 kts 348°
2026-05-06 11:22 43.63442 1.31760 36000 ft 462 kts 349°
2026-05-06 11:22 43.69815 1.30647 35991 ft 460 kts 347°
2026-05-06 11:23 43.76114 1.29107 35984 ft 459 kts 344°
2026-05-06 11:23 43.82336 1.27357 35977 ft 459 kts 344°
2026-05-06 11:24 43.88610 1.25650 35986 ft 459 kts 345°
2026-05-06 11:24 43.94893 1.24039 35975 ft 459 kts 346°
2026-05-06 11:25 44.01183 1.22444 35971 ft 459 kts 346°
2026-05-06 11:25 44.07469 1.20807 35977 ft 458 kts 346°
2026-05-06 11:26 44.13699 1.19177 35979 ft 458 kts 346°
2026-05-06 11:26 44.19966 1.17533 35967 ft 458 kts 346°
2026-05-06 11:27 44.26239 1.15892 35969 ft 458 kts 346°
2026-05-06 11:27 44.32501 1.14249 35975 ft 457 kts 346°
2026-05-06 11:28 44.38749 1.12601 35971 ft 456 kts 346°
2026-05-06 11:28 44.44986 1.10957 35984 ft 455 kts 346°
2026-05-06 11:29 44.51209 1.09316 35973 ft 455 kts 346°
2026-05-06 11:29 44.57416 1.07675 35964 ft 454 kts 346°
2026-05-06 11:30 44.63631 1.06021 35961 ft 454 kts 347°
2026-05-06 11:30 44.69840 1.04368 35951 ft 454 kts 347°
2026-05-06 11:31 44.76040 1.02721 35943 ft 453 kts 347°
2026-05-06 11:31 44.82239 1.01065 35939 ft 453 kts 347°
2026-05-06 11:32 44.88394 0.99413 35933 ft 453 kts 346°
2026-05-06 11:32 44.94596 0.97740 35932 ft 453 kts 347°
2026-05-06 11:33 45.00792 0.96085 35938 ft 453 kts 347°
2026-05-06 11:33 45.06988 0.94430 35932 ft 453 kts 347°
2026-05-06 11:34 45.13178 0.92753 35923 ft 453 kts 347°
2026-05-06 11:34 45.19383 0.91065 35928 ft 453 kts 347°
2026-05-06 11:35 45.25579 0.89381 35921 ft 453 kts 347°
2026-05-06 11:35 45.31743 0.87705 35918 ft 453 kts 347°
2026-05-06 11:36 45.37942 0.86021 35918 ft 453 kts 347°
2026-05-06 11:36 45.44140 0.84331 35920 ft 454 kts 347°
2026-05-06 11:37 45.49293 0.82921 35917 ft 453 kts 347°
2026-05-06 11:37 45.55485 0.81224 35913 ft 453 kts 347°
2026-05-06 11:38 45.61689 0.79514 35923 ft 454 kts 347°
2026-05-06 11:38 45.67898 0.77805 35919 ft 454 kts 348°
2026-05-06 11:39 45.74095 0.76097 35927 ft 453 kts 348°
2026-05-06 11:39 45.80285 0.74384 35928 ft 452 kts 347°
2026-05-06 11:40 45.86463 0.72670 35932 ft 452 kts 348°
2026-05-06 11:40 45.92637 0.70946 35933 ft 452 kts 348°
2026-05-06 11:41 45.98773 0.69237 35931 ft 452 kts 348°
2026-05-06 11:41 46.04945 0.67521 35929 ft 451 kts 348°
2026-05-06 11:42 46.11111 0.65795 35916 ft 451 kts 348°
2026-05-06 11:42 46.17268 0.64062 35917 ft 451 kts 348°
2026-05-06 11:43 46.23432 0.62337 35923 ft 451 kts 348°
2026-05-06 11:43 46.29596 0.60599 35923 ft 451 kts 347°
2026-05-06 11:44 46.38840 0.57988 35929 ft 451 kts 348°
2026-05-06 11:44 46.44996 0.56247 35926 ft 450 kts 347°
2026-05-06 11:45 46.51146 0.54504 35925 ft 451 kts 348°
2026-05-06 11:45 46.57384 0.53796 35926 ft 452 kts
2026-05-06 11:46 46.63554 0.55536 35919 ft 452 kts 12°
2026-05-06 11:46 46.69690 0.57570 35918 ft 452 kts 12°
2026-05-06 11:47 46.75788 0.59564 35917 ft 452 kts 12°
2026-05-06 11:47 46.81932 0.61589 35922 ft 452 kts 12°
2026-05-06 11:48 46.88066 0.63623 35924 ft 452 kts 11°
2026-05-06 11:48 46.94210 0.65671 35921 ft 452 kts 12°
2026-05-06 11:49 47.00360 0.67722 35928 ft 453 kts 12°
2026-05-06 11:49 47.06323 0.70667 35931 ft 454 kts 27°
2026-05-06 11:50 47.11742 0.75433 35933 ft 455 kts 31°
2026-05-06 11:50 47.17155 0.80257 35938 ft 455 kts 31°
2026-05-06 11:51 47.22542 0.85044 35945 ft 455 kts 31°
2026-05-06 11:51 47.27947 0.89898 35947 ft 455 kts 31°
2026-05-06 11:52 47.33355 0.94767 35947 ft 455 kts 31°
2026-05-06 11:52 47.38766 0.99643 35958 ft 456 kts 31°
2026-05-06 11:53 47.44188 1.04528 35951 ft 456 kts 31°
2026-05-06 11:53 47.49597 1.09416 35946 ft 456 kts 31°
2026-05-06 11:54 47.55086 1.14109 35946 ft 456 kts 27°
2026-05-06 11:54 47.60728 1.18412 35944 ft 456 kts 26°
2026-05-06 11:55 47.66393 1.22673 35946 ft 457 kts 27°
2026-05-06 11:55 47.72018 1.27051 35950 ft 457 kts 28°
2026-05-06 11:56 47.77623 1.31502 35946 ft 457 kts 28°
2026-05-06 11:56 47.83244 1.35953 35935 ft 457 kts 28°
2026-05-06 11:57 47.88825 1.40362 35930 ft 457 kts 28°
2026-05-06 11:57 47.94485 1.44850 35930 ft 458 kts 28°
2026-05-06 11:58 48.00112 1.49319 35929 ft 458 kts 28°
2026-05-06 11:58 48.05745 1.53797 35926 ft 458 kts 28°
2026-05-06 11:59 48.11326 1.58258 35921 ft 458 kts 28°
2026-05-06 11:59 48.16948 1.62755 35922 ft 458 kts 28°
2026-05-06 12:00 48.22565 1.67271 35926 ft 459 kts 28°
2026-05-06 12:00 48.28197 1.71805 35924 ft 459 kts 28°
2026-05-06 12:01 48.33827 1.76345 35932 ft 460 kts 28°
2026-05-06 12:01 48.39462 1.80901 35931 ft 459 kts 28°
2026-05-06 12:02 48.45077 1.85461 35928 ft 460 kts 28°
2026-05-06 12:02 48.50704 1.90041 35927 ft 460 kts 28°
2026-05-06 12:03 48.56338 1.94629 35920 ft 460 kts 28°
2026-05-06 12:03 48.61948 1.99212 35930 ft 462 kts 29°
2026-05-06 12:04 48.67590 2.03841 35923 ft 461 kts 29°
2026-05-06 12:04 48.72745 2.09451 35917 ft 459 kts 47°
2026-05-06 12:05 48.76388 2.17326 35918 ft 457 kts 66°
2026-05-06 12:05 48.78305 2.26416 35911 ft 454 kts 76°
2026-05-06 12:06 48.79964 2.35652 35911 ft 454 kts 76°
2026-05-06 12:06 48.81619 2.44895 35912 ft 454 kts 76°
2026-05-06 12:07 48.83252 2.54094 35911 ft 454 kts 76°
2026-05-06 12:07 48.84887 2.63364 35905 ft 454 kts 76°
2026-05-06 12:08 48.86516 2.72647 35902 ft 456 kts 76°
2026-05-06 12:08 48.88149 2.81957 35892 ft 457 kts 76°
2026-05-06 12:09 48.89776 2.91296 35900 ft 458 kts 76°
2026-05-06 12:09 48.91392 3.00660 35904 ft 458 kts 77°
2026-05-06 12:10 48.93009 3.10028 35896 ft 458 kts 77°
2026-05-06 12:10 48.94615 3.19398 35890 ft 458 kts 77°
2026-05-06 12:11 48.96205 3.28777 35893 ft 458 kts 77°
2026-05-06 12:11 48.97795 3.38163 35891 ft 458 kts 77°
2026-05-06 12:12 48.99381 3.47557 35889 ft 458 kts 77°
2026-05-06 12:12 49.00942 3.56888 35878 ft 458 kts 77°
2026-05-06 12:13 49.02508 3.66296 35883 ft 458 kts 78°
2026-05-06 12:13 49.04075 3.75778 35879 ft 458 kts 78°
2026-05-06 12:14 49.05632 3.85205 35885 ft 459 kts 77°
2026-05-06 12:14 49.07174 3.94573 35886 ft 458 kts 77°
2026-05-06 12:15 49.08707 4.04012 35889 ft 458 kts 78°
2026-05-06 12:15 49.10226 4.13453 35888 ft 458 kts 77°
2026-05-06 12:16 49.11755 4.22896 35888 ft 458 kts 77°
2026-05-06 12:16 49.13269 4.32327 35883 ft 458 kts 78°
2026-05-06 12:17 49.15336 4.41542 35876 ft 460 kts 69°
2026-05-06 12:17 49.17793 4.50569 35861 ft 460 kts 69°
2026-05-06 12:18 49.20244 4.59618 35858 ft 461 kts 69°
2026-05-06 12:18 49.22681 4.68665 35875 ft 462 kts 69°
2026-05-06 12:19 49.25124 4.77742 35859 ft 460 kts 69°
2026-05-06 12:19 49.27554 4.86807 35854 ft 460 kts 69°
2026-05-06 12:20 49.29968 4.95879 35840 ft 460 kts 69°
2026-05-06 12:20 49.32376 5.04982 35833 ft 461 kts 70°
2026-05-06 12:21 49.34771 5.14057 35840 ft 462 kts 70°
2026-05-06 12:21 49.37176 5.23189 35830 ft 461 kts 70°
2026-05-06 12:22 49.39567 5.32330 35830 ft 462 kts 70°
2026-05-06 12:22 49.41960 5.41462 35830 ft 462 kts 70°
2026-05-06 12:23 49.44353 5.50638 35822 ft 463 kts 70°
2026-05-06 12:23 49.46731 5.59840 35828 ft 463 kts 70°
2026-05-06 12:24 49.49104 5.69057 35830 ft 463 kts 69°
2026-05-06 12:24 49.52420 5.77549 35813 ft 467 kts 50°
2026-05-06 12:25 49.56394 5.83186 35829 ft 471 kts 37°
2026-05-06 12:25 49.62808 5.89863 35822 ft 488 kts 32°
2026-05-06 12:26 49.68531 5.95274 35818 ft 475 kts 32°
2026-05-06 12:26 49.73197 5.99806 35815 ft 472 kts 33°
2026-05-06 12:27 49.78659 6.05326 35819 ft 471 kts 34°
2026-05-06 12:27 49.84121 6.10922 35819 ft 471 kts 34°
2026-05-06 12:28 49.89910 6.15639 35820 ft 471 kts 24°
2026-05-06 12:28 49.95892 6.19808 35809 ft 471 kts 24°
2026-05-06 12:29 50.01847 6.24078 35801 ft 471 kts 25°
2026-05-06 12:29 50.07769 6.28468 35809 ft 471 kts 25°
2026-05-06 12:30 50.13686 6.32863 35801 ft 471 kts 25°
2026-05-06 12:30 50.19622 6.37227 35797 ft 472 kts 25°
2026-05-06 12:31 50.25566 6.41600 35805 ft 472 kts 25°
2026-05-06 12:31 50.31498 6.45992 35783 ft 472 kts 25°
2026-05-06 12:32 50.37287 6.50675 35791 ft 472 kts 34°
2026-05-06 12:32 50.42756 6.56377 35799 ft 472 kts 34°
2026-05-06 12:33 50.48237 6.62080 35817 ft 473 kts 34°
2026-05-06 12:33 50.53723 6.67800 35815 ft 473 kts 34°
2026-05-06 12:34 50.59205 6.73547 35831 ft 473 kts 34°
2026-05-06 12:34 50.64690 6.79296 35838 ft 474 kts 34°